Location: Pittsburgh
(40.4410°N, 79.9960°W)
Time: 17:23:07
(UTC-04:00)

ARIANE 6 FM1 Upper Stage - Pass Details

Date: 17 March 2026
Orbit: 524 x 604 km, 62.0° (Epoch: 11 April)

Event Time Altitude Azimuth Distance (km) Brightness Sun altitude
Exits shadow 05:10:26 18° 356° (N) 1,350 4.8 -26.4°
Drops below altitude 10° 05:11:57 10° 13° (NNE) 1,794 5.6 -26.2°
Sets 05:14:26 0° 27° (NNE) 2,678 6.8 -25.7°
